This is the latest recevied weather packets stored in our database for station/object KC1DMA. If no packets are shown the sender has not sent any weather packets the latest 10 day(s).
| Time | Temp. | Humidity | Pressure | Rain* | Wind** | Luminosity | Snow |
|---|---|---|---|---|---|---|---|
| 1777630248 | 2.78° C | 95% | 1012.7 hPa | - | - | 15 W/m² | - |
| 1777629946 | 2.78° C | 94% | 1012.9 hPa | - | - | 12 W/m² | - |
| 1777629644 | 2.78° C | 94% | 1012.5 hPa | - | - | 9 W/m² | - |
| 1777629339 | 3.33° C | 94% | 1012.7 hPa | - | - | 6 W/m² | - |
| 1777629035 | 3.33° C | 94% | 1012.5 hPa | - | - | 4 W/m² | - |
| 1777628732 | 3.33° C | 94% | 1012.6 hPa | - | - | 2 W/m² | - |
| 1777628428 | 3.33° C | 94% | 1012.4 hPa | - | - | 1 W/m² | - |
| 1777628125 | 3.33° C | 94% | 1012.3 hPa | - | - | 0 W/m² | - |
| 1777627821 | 3.33° C | 94% | 1012.6 hPa | - | - | 0 W/m² | - |
| 1777627519 | 2.78° C | 94% | 1012.4 hPa | - | - | 0 W/m² | - |
| 1777627215 | 3.33° C | 93% | 1012.5 hPa | - | - | 0 W/m² | - |
| 1777626912 | 3.33° C | 93% | 1012.3 hPa | - | - | 0 W/m² | - |
| 1777626609 | 3.33° C | 92% | 1012.2 hPa | - | - | 0 W/m² | - |
| 1777626309 | 3.33° C | 92% | 1012.5 hPa | - | - | 0 W/m² | - |
| 1777626008 | 3.33° C | 91% | 1012.3 hPa | - | - | 0 W/m² | - |
| 1777625703 | 3.89° C | 91% | 1012.2 hPa | - | - | 0 W/m² | - |
| 1777625398 | 3.33° C | 90% | 1012.1 hPa | - | - | 0 W/m² | - |
| 1777625095 | 3.33° C | 90% | 1012 hPa | - | - | 0 W/m² | - |
| 1777624791 | 3.89° C | 89% | 1012.1 hPa | - | - | 0 W/m² | - |
| 1777624486 | 3.89° C | 88% | 1012.1 hPa | - | - | 0 W/m² | - |
| 1777624185 | 4.44° C | 87% | 1012.2 hPa | - | - | 0 W/m² | - |
| 1777623880 | 4.44° C | 87% | 1012.1 hPa | - | - | 0 W/m² | - |
| 1777623577 | 4.44° C | 87% | 1012 hPa | - | - | 0 W/m² | - |
| 1777623276 | 5° C | 86% | 1012 hPa | - | - | 0 W/m² | - |
| 1777622971 | 5° C | 86% | 1011.9 hPa | - | - | 0 W/m² | - |
* Rain since midnight (hover to see other rain measurements)
** Current wind speed in m/s (hover to see current wind gust speed)